Theta_e
327 320 316 315 310 310 310 301 295 293 285 285 281 287 291 292 293 292 292 292 294 295 295 294 294 297 298 295 296 294 294 292 291 287 292 295 303 308 315 324 322 330 332 336 339 342 345 346 351 352 353 353 353 353 353 353 352 352 351 351 350 349 349 348 347 346 346 347 347 346 346 347 346 347 346 347 347 346 347 347 347 347 347 348 348 347 347 347 346 346 344 343 340 339 338 337 336
319 317 314 315 311 308 303 295 289 282 283 283 286 285 287 288 292 290 293 293 294 298 294 293 294 294 292 293 293 295 296 296 295 298 299 299 305 311 314 323 322 331 333 336 339 342 343 344 348 352 353 353 353 354 354 353 353 352 351 350 350 349 349 348 347 347 346 347 346 346 346 345 345 346 346 345 345 346 346 346 347 346 347 347 347 347 347 346 346 344 343 341 339 338 336 335 334
317 316 314 310 308 304 298 295 294 279 281 283 281 286 288 291 291 291 290 292 294 294 291 294 294 296 297 296 296 294 295 296 294 295 303 306 306 306 318 322 326 330 333 336 339 342 343 343 345 351 353 353 353 354 354 353 353 352 351 350 350 349 349 349 347 347 347 345 345 345 345 345 345 346 345 345 346 345 346 346 346 346 347 347 347 346 346 345 344 343 342 341 339 338 336 334 332
313 316 313 306 305 297 295 286 284 281 283 279 281 285 288 291 290 289 290 292 292 292 295 298 298 299 297 294 297 296 294 297 296 302 303 308 304 307 320 323 325 331 332 336 339 341 342 343 345 350 353 353 353 354 354 353 352 352 351 351 350 350 349 348 347 347 347 346 344 344 345 345 345 346 345 345 345 345 345 345 346 346 347 346 346 345 345 344 343 341 340 339 338 337 335 332 330
313 316 307 302 298 298 288 287 282 280 283 282 287 287 287 289 291 291 293 292 291 293 295 297 295 297 298 298 296 296 299 298 300 302 306 306 307 307 322 323 329 332 333 335 339 341 340 342 344 348 352 353 353 354 354 353 352 352 351 351 350 349 349 348 347 347 347 347 346 345 345 344 345 345 345 345 345 344 344 345 344 346 346 346 346 345 343 342 341 341 340 339 337 335 332 330 328
309 307 308 304 302 297 292 289 288 288 284 285 287 291 289 288 291 292 290 292 293 296 295 294 297 297 296 297 296 300 296 301 301 303 306 310 314 312 321 328 331 331 330 333 336 339 339 341 344 347 352 353 353 354 353 353 352 352 351 350 349 349 349 348 347 347 347 348 347 347 346 346 346 346 346 345 344 344 344 344 345 346 346 345 345 344 343 342 339 338 337 337 336 332 330 328 327
311 304 302 302 298 296 291 283 286 283 291 288 291 288 290 290 290 291 293 295 298 296 294 298 293 295 295 295 297 297 297 303 305 305 308 308 313 319 323 330 330 329 329 331 333 335 336 340 346 348 350 351 353 353 353 353 351 351 351 350 349 349 349 348 347 346 347 347 348 348 348 348 347 347 346 345 344 344 344 345 345 346 345 344 343 342 341 339 338 337 336 337 334 332 328 327 326
308 304 298 294 291 288 286 284 286 285 291 288 290 289 289 289 288 294 292 294 295 297 296 293 293 295 295 294 296 297 296 299 304 306 312 311 316 319 324 329 329 328 331 331 332 334 337 339 345 347 350 351 352 352 352 352 351 351 350 349 349 349 348 348 347 347 347 347 347 347 348 348 348 347 346 345 344 343 344 345 345 346 345 343 342 340 339 338 336 336 337 337 334 331 327 325 325
303 302 298 296 288 285 282 287 288 286 288 289 290 290 299 298 290 293 293 292 293 292 291 295 294 293 293 293 294 296 297 301 303 309 312 314 315 318 324 324 327 328 331 331 331 331 333 337 342 346 347 350 352 352 352 352 351 351 350 350 350 349 348 348 347 346 348 349 347 348 348 348 348 347 347 345 344 344 344 345 345 345 344 342 341 340 339 338 339 339 337 336 334 330 326 324 323
301 299 292 291 285 286 281 286 287 290 289 290 289 291 292 292 292 292 293 295 294 291 294 293 294 297 294 295 294 299 303 300 305 313 312 313 315 316 322 323 323 328 329 331 330 332 332 336 337 341 345 349 350 350 351 352 351 351 350 350 350 349 348 348 347 346 347 348 347 347 348 348 348 347 346 345 344 344 344 344 344 344 343 341 340 339 338 338 337 338 338 335 332 328 326 323 322
298 294 293 289 282 282 283 284 283 287 289 290 289 291 291 291 293 291 292 293 291 293 292 293 297 295 293 294 294 298 298 296 309 309 311 310 314 315 316 315 319 323 329 328 329 330 331 334 334 338 341 343 346 348 349 351 351 351 350 350 350 349 349 349 348 347 348 347 348 349 348 348 348 346 346 345 345 344 344 345 344 343 342 340 339 338 337 336 336 335 336 334 330 326 324 323 322
297 290 289 281 284 285 283 285 285 287 289 288 296 293 292 293 292 294 294 295 291 290 293 295 296 294 293 291 297 297 296 300 308 309 307 308 313 313 314 314 316 322 323 325 325 328 328 330 334 335 334 335 341 345 346 347 348 349 349 349 349 349 349 348 349 348 348 348 348 348 347 349 347 347 345 345 345 344 344 344 343 343 342 341 339 338 336 336 335 336 336 332 329 326 323 322 320
293 288 285 284 286 285 284 285 286 289 286 289 293 295 291 293 295 293 291 291 290 292 296 294 296 295 293 295 295 291 297 300 299 301 304 309 313 311 312 314 316 320 321 322 326 326 326 328 333 336 336 332 333 337 340 342 344 346 347 348 347 347 347 348 348 348 348 348 348 348 347 345 345 346 345 345 345 344 344 343 344 342 342 341 340 338 335 335 337 338 334 331 329 327 323 321 319
294 290 290 286 282 283 285 288 286 290 287 292 288 290 291 295 293 293 290 294 292 294 295 295 295 295 295 292 289 287 292 299 298 304 306 309 309 310 312 311 314 316 318 322 326 326 327 328 330 334 337 336 337 335 334 338 340 343 343 344 344 343 345 346 346 346 346 346 344 343 342 341 343 344 344 343 343 343 344 343 343 342 341 341 339 337 336 338 337 335 333 331 329 327 324 320 318
299 290 284 284 281 284 285 289 289 283 292 291 294 293 291 295 293 289 294 291 296 293 295 296 298 296 291 293 291 293 297 298 299 306 307 309 309 311 311 312 316 316 319 322 323 324 326 327 331 333 336 339 339 339 339 338 334 338 340 340 341 341 342 343 344 341 341 341 340 339 337 336 337 339 341 342 340 339 338 339 342 343 341 340 338 337 336 337 335 334 332 331 329 327 323 320 318
295 290 284 286 284 284 288 286 283 285 292 291 293 290 291 294 291 295 294 296 295 296 294 298 298 297 294 294 296 296 296 302 305 306 307 307 307 308 308 310 312 313 316 322 326 324 325 329 331 335 337 339 340 341 340 339 334 331 335 337 337 338 339 340 339 337 337 335 336 334 331 331 332 335 331 335 335 337 335 333 338 341 342 341 337 335 335 336 334 333 332 330 328 326 323 319 316
293 290 288 281 286 286 289 288 286 291 289 288 289 291 294 292 293 292 293 294 297 295 290 294 298 296 295 295 296 295 302 305 306 305 306 305 306 306 307 308 309 310 313 314 320 325 327 330 331 333 336 339 340 341 341 340 339 330 331 331 333 334 335 336 336 332 330 330 330 329 326 331 333 335 333 337 330 335 329 327 335 339 340 338 336 338 335 336 334 333 331 330 328 325 320 317 316
289 284 282 284 283 285 287 289 288 292 292 292 292 290 293 292 292 296 295 294 288 291 293 293 294 293 295 295 293 295 298 298 301 303 301 301 301 302 303 304 305 308 309 313 313 317 324 329 332 333 335 337 339 340 341 341 340 334 338 338 335 335 331 330 333 333 328 329 325 329 330 330 332 333 335 332 334 333 329 324 329 334 337 333 334 336 335 335 334 332 331 329 327 321 314 299 297
287 285 284 286 282 289 292 290 290 292 292 291 291 289 292 293 294 294 295 291 289 293 295 292 293 294 293 295 294 294 295 295 295 295 294 294 295 296 297 298 299 301 302 306 310 313 317 324 329 333 334 336 337 339 339 339 340 339 338 339 338 332 333 331 335 333 332 331 331 332 329 331 332 333 334 333 333 327 330 322 326 330 334 331 331 333 336 335 333 332 330 328 323 315 300 295 291
292 289 287 283 286 288 290 290 292 291 294 292 293 292 291 294 294 294 295 291 290 292 293 291 291 295 293 292 294 293 294 294 294 294 294 293 294 294 294 294 295 296 297 298 302 309 312 316 323 330 333 335 336 337 338 339 339 339 339 339 338 337 337 335 336 336 335 333 333 332 332 331 333 333 329 324 326 330 329 321 324 326 328 326 325 328 330 333 332 331 328 323 312 303 296 294 291
294 289 286 289 288 292 294 291 292 291 292 293 292 290 291 291 290 294 291 293 294 292 292 293 294 294 292 291 293 293 293 293 293 293 293 293 293 294 294 294 294 295 296 298 300 299 301 305 311 322 330 333 334 336 336 337 338 338 338 339 338 337 336 337 337 336 336 335 334 332 331 329 332 333 333 331 331 330 326 326 325 324 323 323 321 323 322 324 321 316 312 306 300 300 296 291 290
293 294 290 291 289 292 292 291 291 292 290 292 289 290 294 294 293 292 292 291 293 293 295 293 292 291 290 292 292 292 292 292 292 292 292 292 292 293 294 295 295 294 296 297 298 298 299 301 305 312 322 330 333 335 336 336 336 337 336 337 338 338 339 338 334 334 336 336 335 335 332 330 329 331 330 329 326 325 327 324 323 324 322 320 322 321 319 318 315 313 310 305 298 296 294 292 292
294 289 291 290 289 293 294 290 291 291 292 292 291 292 292 292 292 290 292 293 292 293 291 291 292 292 292 292 291 291 291 291 291 291 292 292 292 293 293 294 294 295 295 296 298 298 300 301 302 305 315 325 331 333 334 335 335 335 337 336 335 334 332 333 336 335 333 333 335 333 333 332 331 329 326 325 324 323 323 323 324 323 323 321 320 320 316 312 313 312 309 304 297 296 294 292 291
293 293 290 293 290 293 292 296 290 290 291 291 291 290 292 291 291 290 291 292 292 291 292 292 291 292 292 290 290 290 290 290 290 291 291 291 292 292 293 293 294 295 295 296 298 299 300 301 302 304 310 321 328 331 333 333 333 334 334 332 334 332 332 332 331 332 333 331 332 332 331 334 333 330 327 324 326 322 323 323 320 319 319 319 317 319 316 312 311 310 308 302 299 296 296 294 292
293 292 291 292 290 291 290 288 288 288 289 291 289 290 292 291 290 291 292 292 291 292 291 291 291 291 290 290 290 290 290 290 290 290 291 291 291 293 293 293 293 294 295 296 297 299 300 302 304 308 311 318 324 328 330 331 330 331 331 332 332 330 333 334 332 327 329 330 330 327 327 327 327 326 325 327 325 323 322 320 319 318 318 318 317 316 318 315 310 309 308 305 298 297 296 296 294
292 292 290 289 290 289 290 290 290 290 291 289 292 292 290 289 290 291 291 290 291 291 291 290 290 290 289 289 289 289 289 289 290 290 290 291 292 291 292 292 293 293 294 296 297 299 300 303 307 310 312 315 319 325 327 327 327 328 329 331 331 331 332 332 330 329 327 326 328 326 327 327 326 325 323 321 321 320 321 319 318 319 318 315 314 315 313 314 312 308 306 303 301 297 297 295 295
291 290 290 291 292 289 290 292 289 289 291 289 292 291 290 290 291 290 290 290 290 291 289 289 289 288 289 289 289 289 289 289 289 290 290 291 291 291 291 292 292 293 294 295 297 298 300 303 308 312 314 314 316 321 322 324 324 326 326 327 328 330 330 330 329 329 326 325 325 326 326 324 323 321 321 320 320 319 317 317 317 316 316 314 315 315 311 313 310 310 308 306 303 299 298 293 295
290 291 290 289 288 289 290 288 289 289 292 288 291 289 288 288 291 288 291 289 290 289 288 288 288 288 288 288 288 289 289 289 290 290 289 289 289 290 290 290 291 292 293 295 296 298 300 302 307 311 313 315 316 316 317 320 322 321 322 324 326 327 327 329 328 324 325 328 325 323 324 322 320 320 321 319 320 316 315 317 317 315 316 315 314 313 311 309 309 307 306 305 303 301 295 293 291
290 290 291 287 288 292 290 291 290 290 292 288 289 290 289 289 288 291 290 289 290 289 287 287 287 287 287 287 288 288 288 289 289 289 289 289 290 290 290 291 291 291 294 294 296 298 299 301 305 309 311 312 313 314 315 314 315 317 318 319 321 322 324 324 326 325 326 326 325 325 325 324 324 323 322 321 317 318 317 316 315 314 314 314 313 311 310 308 308 307 305 304 302 299 297 295 292
291 288 287 289 287 289 290 290 289 291 292 286 290 286 286 286 288 289 289 289 289 289 287 287 287 286 287 286 287 288 288 288 288 288 289 289 290 290 290 291 292 291 293 294 295 297 299 300 303 307 308 310 312 313 313 314 314 315 316 317 316 318 318 318 317 319 320 321 322 322 323 323 323 324 323 321 320 316 315 315 315 315 315 313 311 309 309 309 308 307 305 305 303 302 300 297 295
290 288 285 285 285 284 290 289 290 292 290 288 292 287 287 287 290 290 289 288 288 287 287 287 286 286 286 286 286 287 287 288 288 288 289 289 289 290 290 291 291 291 292 293 294 295 297 298 301 304 306 309 311 312 313 313 314 314 315 315 315 315 315 315 315 315 315 315 316 316 318 319 319 319 319 319 319 316 314 313 312 311 310 309 309 309 311 309 309 309 305 306 300 300 299 295 294
284 287 283 279 284 284 286 290 289 291 291 288 291 285 289 292 289 289 287 288 288 286 286 286 285 285 285 285 286 286 286 287 288 288 288 288 289 289 290 290 290 291 291 292 293 295 296 297 299 301 303 306 308 309 310 311 311 311 311 311 312 312 311 311 311 311 312 312 312 312 313 313 315 316 316 317 315 314 313 313 311 309 309 310 310 309 309 309 308 307 304 306 303 301 298 299 292
280 285 282 282 282 283 287 291 286 288 289 289 290 287 284 289 287 288 286 287 287 286 284 284 285 284 285 285 286 285 286 286 287 287 288 288 289 289 289 290 290 290 291 291 292 293 295 296 297 298 299 302 305 307 308 307 307 307 307 306 307 307 306 306 307 307 307 308 308 308 309 310 311 312 313 314 314 313 312 311 309 308 308 309 309 307 307 306 307 306 302 301 304 303 298 299 295
282 281 284 281 284 284 285 287 289 287 290 289 287 287 285 290 287 287 288 287 286 285 284 285 285 285 285 285 285 285 285 285 285 286 286 287 288 288 289 291 290 290 291 291 291 292 293 294 295 296 297 299 301 303 304 304 304 304 304 303 303 303 303 303 303 303 303 304 304 304 305 305 307 309 310 310 310 310 310 309 308 309 309 308 307 306 304 303 303 304 303 298 298 301 299 298 298
279 284 283 285 283 282 286 285 290 289 288 290 286 286 288 290 289 287 287 287 286 285 285 284 284 284 285 284 284 284 284 284 285 286 286 286 287 287 288 288 289 289 290 290 290 291 292 293 294 295 295 296 298 300 301 301 301 302 302 301 300 300 300 300 300 300 300 300 300 301 302 302 303 305 307 307 307 307 307 307 307 306 307 307 305 304 302 302 302 302 302 300 296 294 294 295 294
285 284 284 282 284 286 284 287 287 289 289 287 286 288 289 291 290 287 287 286 285 285 285 284 284 284 284 284 284 284 284 284 285 286 286 286 286 286 287 287 288 288 289 289 290 290 291 292 293 293 294 295 296 297 298 299 298 297 297 298 297 297 297 296 297 296 296 297 298 298 298 299 300 300 302 304 304 304 304 303 304 305 305 306 305 304 302 302 302 301 299 299 295 294 292 292 292
285 284 283 284 285 286 286 286 288 288 288 287 289 287 287 289 288 285 287 286 285 285 284 284 284 284 284 283 283 283 284 284 285 285 285 285 285 286 286 286 287 287 288 288 288 289 289 290 291 290 292 294 294 294 295 295 295 294 294 293 292 294 294 294 293 293 293 293 294 295 295 295 296 297 299 299 300 301 301 301 300 301 303 303 303 302 302 300 300 299 298 296 296 294 294 292 294
288 285 284 285 283 285 287 288 288 287 288 284 283 284 286 287 285 285 286 285 284 283 284 283 283 283 284 283 283 283 284 284 284 284 285 284 284 285 285 286 287 286 286 286 287 287 288 289 289 289 291 292 292 293 293 293 293 293 292 291 291 291 290 290 290 290 290 291 291 291 292 293 293 293 295 296 297 298 298 298 298 298 299 300 300 300 299 298 298 297 297 296 294 295 292 291 293
284 285 283 283 285 283 287 287 286 285 287 286 283 285 287 289 283 285 284 284 284 285 284 284 283 283 283 283 283 283 283 283 283 283 283 283 284 284 284 284 285 285 285 285 286 287 287 288 288 289 289 290 291 292 293 292 292 292 292 290 291 290 290 290 289 289 289 289 289 289 289 289 290 290 291 292 293 294 294 295 295 295 294 296 296 296 296 296 296 296 296 295 292 290 289 290 291
284 284 283 284 284 286 284 285 285 288 286 284 281 283 286 286 283 283 284 284 284 284 284 283 284 283 283 283 283 282 282 282 282 282 282 282 282 283 283 283 284 284 284 285 285 285 286 287 287 288 288 289 289 290 292 291 292 291 291 291 290 290 289 290 289 289 288 288 287 288 288 288 289 289 289 290 291 292 292 292 292 292 292 293 293 292 292 292 292 293 294 294 293 291 290 288 290
283 285 284 284 284 284 287 286 285 284 285 283 283 284 283 287 286 282 283 284 283 283 283 282 283 283 284 283 283 283 282 282 282 282 282 282 282 282 282 283 283 283 283 283 284 284 285 285 286 287 287 288 288 289 289 289 290 290 289 289 289 288 288 287 287 286 286 287 286 286 286 287 287 288 288 289 290 290 290 291 291 291 291 291 291 291 290 290 290 290 292 293 293 292 291 291 290
282 283 287 288 287 287 284 284 285 282 282 282 285 279 276 278 280 284 282 282 282 283 281 281 282 283 282 282 282 282 282 282 282 282 282 282 281 281 282 282 282 282 283 283 283 283 284 284 285 286 286 287 287 287 288 289 288 288 288 287 286 285 284 284 283 283 283 284 284 284 285 285 286 286 287 287 288 288 288 289 289 289 290 290 290 290 290 290 290 290 290 291 291 292 291 290 290
284 286 286 289 287 285 285 283 284 279 279 284 281 280 275 279 281 282 281 281 281 281 281 282 282 282 282 282 282 282 282 282 282 282 281 281 281 281 281 281 281 282 282 282 283 283 283 284 284 285 285 285 286 286 287 288 287 286 286 285 284 284 282 283 283 283 283 282 283 283 283 284 284 284 285 285 286 287 287 287 287 288 288 288 289 289 289 289 289 289 289 290 290 291 290 289 289
283 284 283 285 285 285 283 283 284 281 280 282 282 281 278 278 282 281 281 281 280 281 281 281 282 281 282 282 282 282 282 282 281 281 281 281 280 280 280 281 281 281 281 282 282 282 282 282 283 283 284 284 284 285 286 287 285 285 284 284 284 282 282 281 282 282 282 283 282 282 282 283 283 283 283 284 284 285 285 285 286 286 286 286 287 287 288 288 289 289 289 288 289 289 289 288 288
284 285 283 283 285 283 281 284 281 280 281 279 279 281 280 277 279 281 282 281 280 280 280 281 281 281 281 282 282 282 282 282 281 281 281 281 280 281 281 280 280 281 281 281 281 281 282 282 282 282 282 283 283 284 284 284 285 283 283 282 281 282 282 282 282 282 282 282 281 281 281 282 282 282 283 283 283 283 284 284 284 284 284 285 285 286 286 287 287 287 287 287 287 287 287 288 287
285 283 283 282 281 281 280 278 282 278 278 274 278 281 277 279 279 280 280 281 282 281 281 281 281 281 281 281 282 282 281 282 281 281 281 281 281 280 280 280 280 280 280 281 281 281 281 281 282 282 281 282 282 282 283 282 282 283 282 281 280 280 280 280 280 280 280 280 280 280 280 281 281 281 281 282 282 282 282 283 283 283 283 283 284 284 284 285 285 285 286 286 286 286 286 286 286
284 283 284 283 280 279 278 278 276 277 273 275 280 282 282 278 280 281 282 282 281 280 280 280 280 281 281 281 282 282 281 281 281 281 281 281 280 280 280 279 279 279 279 280 280 280 280 280 281 280 280 281 281 281 282 281 282 281 281 281 280 280 279 279 279 279 279 279 279 279 279 279 280 280 280 281 281 281 281 282 281 282 282 282 282 282 282 283 284 284 284 285 285 285 285 284 285
285 285 281 283 283 278 276 269 274 272 269 271 277 279 281 276 277 280 281 280 280 282 281 281 281 281 282 282 282 282 281 280 280 280 281 281 280 280 279 279 279 279 279 279 279 279 280 280 280 280 280 280 281 281 281 281 281 281 281 280 280 280 279 279 279 278 278 278 278 278 278 279 279 279 279 279 279 280 280 280 280 280 281 281 281 281 281 282 282 282 282 283 283 284 284 284 284
284 283 284 278 272 271 272 269 274 271 273 277 278 279 280 280 282 282 281 281 280 280 282 283 282 282 282 282 282 282 281 280 280 280 280 280 279 279 279 279 279 279 278 278 279 278 279 279 280 280 279 279 280 280 280 280 280 280 280 280 280 280 280 279 279 278 278 278 278 278 278 278 278 278 278 278 279 278 279 279 279 279 279 280 280 280 280 281 281 281 281 281 281 282 282 281 282
283 284 280 275 271 271 268 266 264 269 274 276 278 279 278 279 281 280 282 280 280 280 280 282 283 283 283 283 282 281 281 280 280 280 280 280 280 280 279 278 278 279 278 278 279 278 278 279 279 280 279 279 279 280 280 280 280 280 280 280 280 280 280 279 279 279 278 278 278 278 278 277 277 277 277 277 278 278 278 278 278 278 278 278 279 279 279 279 280 279 280 280 280 281 281 280 280
284 282 285 281 275 269 269 267 273 274 276 276 276 275 272 275 281 278 278 279 279 279 280 280 282 283 282 281 281 280 280 280 280 280 281 280 280 280 279 279 278 278 278 279 278 278 278 279 279 280 279 279 279 279 280 280 279 279 279 280 280 280 279 279 279 279 279 279 279 278 278 277 277 278 277 278 278 278 278 278 278 278 278 278 278 278 279 278 278 278 279 279 279 280 279 280 280
281 281 282 279 280 279 277 272 269 269 270 271 273 276 276 280 278 279 278 278 278 279 280 281 282 281 281 281 281 281 281 281 281 280 280 280 280 279 279 279 278 278 278 278 278 278 278 278 278 279 279 279 279 279 279 279 279 279 278 279 279 280 280 279 279 279 278 278 278 278 278 277 277 277 278 277 277 277 277 277 277 277 277 277 277 278 278 277 277 277 277 277 277 280 278 278 278
283 283 279 282 283 284 274 273 275 272 269 275 269 277 280 279 279 276 277 278 278 278 279 280 280 281 280 281 281 281 281 281 281 281 281 280 279 279 279 278 278 278 278 278 279 278 278 279 279 279 279 279 279 279 279 279 279 278 278 278 278 278 278 278 278 277 278 278 278 277 277 277 277 277 278 277 277 276 276 277 276 276 277 277 277 277 277 277 277 276 276 276 276 277 277 277 277
284 278 282 283 284 282 280 275 271 267 271 274 272 277 279 279 280 278 278 277 278 278 278 279 279 279 280 281 281 281 281 281 281 281 280 280 280 280 279 279 278 278 278 278 278 278 278 279 279 280 281 281 280 280 280 280 279 279 278 278 277 277 277 277 277 277 277 277 277 277 277 277 276 277 277 278 276 276 276 276 275 275 276 276 276 276 276 276 276 276 276 276 276 276 276 276 276
283 281 284 285 279 279 280 274 274 272 270 272 275 277 279 280 282 278 280 279 281 279 278 278 279 279 280 281 281 281 281 280 280 280 280 280 280 280 279 279 279 279 279 278 279 279 280 280 280 281 281 280 280 281 280 280 280 280 279 277 277 277 277 277 276 277 277 277 276 276 276 276 276 276 276 276 276 275 275 275 275 275 275 275 275 275 275 275 275 275 275 276 275 276 276 275 276
286 287 285 285 283 278 276 279 274 276 277 278 277 279 280 281 280 280 283 283 282 279 278 278 280 280 281 281 281 281 281 281 281 281 281 281 281 280 280 280 280 279 279 280 280 279 279 279 279 278 278 278 279 279 279 279 279 279 279 278 278 278 278 277 277 277 277 277 277 276 276 276 276 276 276 275 275 275 275 275 275 275 274 274 274 274 275 274 274 274 274 274 274 274 274 274 274
282 283 281 283 280 282 280 280 277 277 273 276 277 277 282 281 281 282 283 282 282 281 280 280 280 281 281 282 282 282 282 282 281 281 281 280 280 280 280 280 280 280 280 281 280 280 281 280 280 280 279 278 278 277 277 276 277 276 276 276 276 276 275 275 275 275 275 275 275 276 275 275 275 275 275 275 275 275 275 274 274 275 274 274 274 274 274 274 274 274 274 274 274 274 273 273 274
285 286 283 285 281 279 278 278 280 277 278 277 277 278 284 284 280 279 280 280 281 282 281 281 281 281 281 282 282 282 281 281 281 280 280 280 280 280 280 280 280 280 280 280 280 279 278 278 278 277 277 277 277 277 277 276 276 276 276 275 275 275 274 274 274 274 275 275 275 275 276 275 275 275 275 274 274 274 274 274 274 274 274 274 274 274 274 274 273 274 273 275 274 273 273 273 273
Wind_Speed
6 5 3 0 3 2 1 6 1 2 4 1 1 1 0 0 1 2 2 3 0 1 1 1 2 1 0 1 2 4 3 3 5 4 1 2 2 3 5 5 1 3 7 6 7 8 8 9 12 11 13 13 12 11 10 11 12 12 11 10 11 10 10 10 10 10 9 10 10 10 10 10 9 9 8 8 8 7 7 7 6 5 5 7 8 9 10 12 13 14 13 12 12 12 13 13 13
4 4 3 0 1 2 0 1 3 3 6 3 1 1 2 2 0 2 0 1 1 0 1 1 0 1 4 5 1 1 1 5 7 1 4 3 4 3 7 6 2 6 7 6 7 7 7 7 12 12 12 13 13 12 12 11 12 13 12 11 11 11 10 9 9 8 8 9 9 9 10 9 9 8 8 7 6 6 6 6 5 5 6 8 9 8 10 11 12 13 11 10 10 11 11 11 11
3 4 2 3 3 4 2 4 1 1 4 2 2 5 1 0 1 2 6 3 2 2 3 0 1 1 1 1 1 2 0 0 2 3 4 3 2 1 4 5 4 4 6 6 6 7 6 7 11 12 11 13 12 12 13 13 14 13 12 12 12 11 10 9 8 8 8 8 8 8 9 8 8 8 7 7 6 5 5 4 4 5 7 8 9 8 10 10 11 12 10 8 9 10 10 10 10
1 3 1 3 1 3 0 4 5 5 3 3 2 2 1 1 3 5 4 7 6 2 2 0 0 1 1 2 1 0 2 2 4 2 1 2 1 1 4 6 4 4 4 5 7 6 6 7 11 12 11 12 12 10 12 12 14 14 13 13 12 11 10 10 9 8 8 8 7 8 7 7 7 6 6 6 5 5 4 3 4 5 7 8 9 8 8 9 9 10 9 9 9 10 11 11 10
2 1 2 3 3 1 3 1 4 2 2 5 3 4 3 4 2 3 3 2 3 0 1 0 1 0 1 0 0 0 0 2 2 1 2 3 2 3 5 4 4 5 6 5 6 6 5 9 10 11 11 12 13 10 11 10 12 13 13 13 12 11 10 10 9 9 9 9 9 7 7 6 6 6 5 5 4 4 3 3 3 5 6 7 8 8 8 8 8 8 8 8 8 9 10 10 10
4 1 4 2 0 2 4 2 2 1 3 5 1 1 2 4 1 1 5 7 1 0 1 1 0 1 0 0 3 0 2 2 0 1 1 1 6 1 4 4 5 4 4 4 4 5 4 9 10 10 11 12 13 12 11 10 13 11 12 12 12 10 11 10 10 9 10 9 9 9 9 8 7 7 6 5 4 4 3 2 3 5 5 5 7 6 7 8 6 7 6 7 8 9 9 9 9
1 4 4 3 2 4 3 3 1 2 1 3 0 2 2 2 6 3 3 3 0 1 0 0 0 0 1 2 2 4 1 0 0 0 2 5 5 1 3 4 4 4 3 3 3 3 4 8 10 11 10 11 12 12 12 12 13 12 11 12 12 11 11 10 10 10 11 10 10 10 9 9 8 7 6 6 5 4 3 3 5 5 6 5 5 4 5 4 4 5 5 7 8 8 9 9 9
1 0 2 2 1 4 3 1 0 3 2 3 1 2 2 2 2 0 2 1 2 1 2 1 1 1 1 3 0 2 2 1 2 5 5 3 0 1 3 4 5 3 3 3 3 3 4 7 9 10 9 9 10 11 11 11 13 12 13 12 12 11 11 11 10 10 11 10 10 9 9 9 8 7 7 7 6 5 4 4 5 6 6 5 3 3 4 3 1 3 7 8 8 8 9 8 8
6 6 1 4 3 3 3 1 2 2 6 1 5 6 7 2 2 0 1 1 1 0 3 2 1 2 1 3 2 3 3 2 4 3 3 3 3 0 2 3 5 4 4 3 3 3 3 6 8 10 8 9 9 10 11 11 13 13 13 12 11 11 11 10 10 9 9 8 9 9 9 9 7 8 8 8 7 6 5 6 6 6 6 5 7 8 7 6 7 9 6 8 8 9 8 7 7
2 2 1 2 3 3 2 1 2 1 1 1 2 3 1 1 0 1 1 1 0 1 1 1 1 1 1 1 4 3 1 2 4 3 4 4 2 1 2 1 1 5 4 5 4 4 4 6 9 9 9 9 10 10 10 11 12 10 11 11 10 9 9 9 10 9 9 8 9 8 8 8 6 7 7 8 8 8 6 7 7 7 6 6 6 6 6 6 4 6 7 8 9 9 8 7 7
1 5 2 3 4 2 2 1 3 4 2 4 6 7 7 1 1 0 1 2 1 0 5 0 1 0 1 2 3 3 4 4 2 1 1 2 2 2 2 0 0 4 5 5 4 4 4 4 9 9 9 8 9 9 10 11 11 10 10 10 9 8 8 8 9 8 7 9 8 6 7 7 6 6 7 7 8 8 8 8 9 7 6 6 5 4 4 2 2 1 5 9 9 8 7 7 7
1 2 3 3 2 3 2 1 3 6 7 2 1 2 1 1 1 0 0 2 3 3 1 1 1 3 1 2 2 3 7 6 0 1 2 2 2 1 1 1 1 3 4 4 3 4 4 3 5 7 9 8 8 9 9 10 10 9 10 9 9 8 7 8 8 7 7 6 7 6 7 4 6 6 7 8 7 8 8 8 8 9 7 6 5 4 3 3 1 6 10 8 8 7 7 7 7
4 1 6 6 1 0 1 0 1 3 3 1 0 0 1 0 0 1 1 0 0 3 2 4 0 1 3 0 3 5 7 5 4 3 3 1 0 0 1 1 0 2 3 3 3 3 3 3 4 4 5 8 7 8 9 9 10 9 9 9 9 8 8 7 8 7 7 7 6 5 5 2 5 6 8 9 9 7 7 7 6 7 8 6 5 2 2 6 6 11 8 8 7 7 7 6 6
3 4 2 1 1 2 2 1 1 0 1 1 2 3 2 0 1 1 3 0 1 1 1 0 1 1 1 2 4 3 3 4 7 5 2 2 3 4 5 5 5 3 3 1 1 1 1 2 2 3 4 4 4 5 7 9 9 9 8 9 8 7 8 7 7 7 6 6 5 4 1 3 5 4 5 8 7 5 4 4 5 6 5 4 4 3 4 9 9 9 8 8 7 8 7 6 6
1 2 6 5 1 1 2 1 0 3 1 0 0 1 3 2 1 2 2 1 1 2 3 1 1 1 3 1 6 2 3 8 6 6 3 4 6 5 5 4 5 5 4 3 3 2 2 1 1 2 3 3 4 3 3 5 8 9 8 8 8 7 7 7 6 6 5 4 3 2 3 4 5 4 4 5 4 5 3 4 6 5 4 5 2 3 1 9 10 8 8 7 7 7 6 6 6
5 5 4 1 0 2 1 1 1 2 0 1 2 1 0 1 2 1 2 1 1 1 1 1 0 2 0 1 3 4 6 7 6 3 3 5 5 4 4 5 5 3 3 3 2 2 1 1 1 2 3 4 4 4 3 3 5 8 8 8 8 8 7 7 7 5 5 4 3 3 4 3 4 4 5 4 5 5 4 5 5 4 5 6 4 2 2 9 8 8 7 7 7 7 7 7 7
2 3 2 3 1 1 1 1 4 0 4 2 4 2 1 2 1 3 1 1 0 2 4 2 1 1 3 2 3 5 7 6 8 6 7 7 7 6 6 7 7 4 4 3 1 0 1 0 1 2 3 4 5 5 4 4 5 7 6 8 9 9 8 8 7 6 5 4 3 3 3 2 2 2 3 3 4 4 6 7 4 4 5 6 6 5 7 8 8 8 7 7 7 9 9 9 9
2 2 4 1 1 2 4 4 7 1 0 3 5 2 2 3 4 2 2 1 3 2 2 6 2 3 3 1 4 4 4 10 10 10 9 8 7 7 7 6 6 6 7 6 4 2 0 1 2 3 3 4 4 4 4 5 4 6 5 5 5 6 7 7 6 4 5 3 3 3 2 2 2 2 3 3 2 4 5 7 5 5 5 4 10 8 6 7 7 7 7 7 8 9 9 5 4
4 2 2 1 5 1 5 3 5 1 3 2 2 3 0 3 0 2 1 4 5 7 1 2 3 4 6 9 12 12 10 13 12 10 10 10 9 9 7 7 8 7 8 9 8 5 4 2 2 4 5 4 5 5 4 4 5 5 5 5 5 6 5 5 4 4 3 3 3 3 3 3 3 2 3 4 3 4 6 8 5 4 3 6 8 8 6 8 7 6 7 9 9 9 6 4 4
0 2 0 2 7 2 5 3 2 5 0 2 2 2 0 2 1 1 0 4 6 6 5 2 1 7 6 7 10 9 11 11 11 11 10 9 8 8 8 9 9 7 6 6 8 6 6 5 5 4 5 5 5 5 4 4 4 4 5 5 4 4 5 4 5 6 5 4 5 4 3 4 4 3 4 7 7 4 4 5 10 5 2 1 8 6 5 8 7 6 8 8 6 4 5 3 3
0 2 2 1 2 0 1 5 6 4 1 1 0 1 3 4 3 0 2 4 7 3 3 2 3 6 5 5 8 9 12 12 12 11 11 10 9 6 6 6 6 7 6 7 5 8 7 6 6 6 4 4 5 5 5 5 4 4 5 5 5 4 4 6 7 5 4 5 6 4 4 3 4 4 5 4 5 5 2 4 2 2 2 1 6 4 5 5 5 4 4 4 3 4 4 3 3
3 2 1 3 1 1 4 4 3 1 2 0 0 4 4 0 0 2 2 3 7 3 1 0 1 2 3 6 5 8 11 11 11 12 11 9 9 10 10 9 7 4 6 7 9 8 9 7 6 6 6 5 5 5 5 4 4 4 3 4 5 5 7 7 3 3 6 9 7 6 6 4 4 4 3 4 2 3 4 5 2 4 6 2 1 5 5 5 4 4 4 3 2 3 4 3 3
0 2 1 3 3 1 1 1 3 1 1 1 3 3 1 0 2 2 3 6 4 3 3 6 5 3 4 6 5 8 11 11 10 10 10 12 12 10 10 8 9 10 8 7 7 7 7 7 7 7 6 5 6 5 4 4 4 3 3 3 2 4 3 1 5 7 4 1 3 7 7 7 6 5 2 2 1 1 1 4 3 5 6 6 4 5 5 4 4 4 4 3 2 3 3 3 3
3 2 1 3 4 5 4 1 4 1 3 5 2 2 2 1 5 0 1 3 3 6 6 7 5 7 7 9 9 8 7 8 7 6 6 7 7 8 8 9 9 6 6 9 8 8 8 10 8 6 5 5 3 4 4 4 3 3 2 3 3 1 1 3 2 3 1 2 5 4 4 5 7 7 6 3 5 2 3 4 2 0 1 4 4 2 6 5 5 4 4 3 3 2 3 2 2
2 2 0 2 1 5 4 3 3 3 7 6 3 5 5 3 2 0 1 1 4 6 5 5 6 10 11 11 10 8 9 9 9 7 5 5 5 5 6 7 7 7 11 12 10 9 10 9 8 7 4 2 2 2 3 3 3 3 3 3 2 2 3 6 5 1 0 1 0 2 4 2 3 4 3 2 4 5 3 3 2 0 3 2 5 5 6 6 5 5 4 4 3 3 2 2 1
3 3 0 2 3 5 4 5 4 4 4 3 1 8 4 4 1 0 3 3 3 4 9 7 9 13 11 9 8 9 9 9 8 10 8 6 7 11 13 10 9 11 9 8 10 10 10 10 9 8 4 1 2 2 1 2 2 2 2 1 2 2 2 1 1 4 0 1 0 2 1 2 4 6 5 5 3 2 4 3 3 4 5 1 2 5 3 5 5 4 4 3 4 3 3 1 1
3 1 2 2 6 6 3 1 3 3 4 1 2 7 3 1 2 2 2 3 3 9 10 8 11 10 8 7 7 7 9 10 9 7 9 9 10 11 10 10 11 9 8 10 10 10 10 10 10 9 7 2 2 2 2 2 2 2 1 0 0 1 1 1 1 2 4 3 3 2 3 4 4 4 5 4 3 3 2 2 1 2 4 5 4 4 2 2 2 3 4 4 4 3 2 0 1
2 1 2 5 5 4 7 4 6 1 3 2 6 4 2 2 1 3 3 2 1 10 8 8 9 7 6 7 7 6 7 7 7 8 12 13 10 9 10 10 11 10 10 11 9 8 10 11 10 10 8 6 5 3 3 3 3 3 2 1 0 0 1 2 4 3 3 4 1 3 4 3 3 3 5 3 4 3 2 2 3 5 6 4 3 3 5 5 4 3 3 3 2 2 1 0 1
0 1 4 6 7 5 2 1 1 0 2 2 5 1 1 0 3 1 1 3 6 10 8 6 7 6 5 5 6 7 7 7 7 9 9 6 6 6 8 8 8 9 6 7 9 8 10 10 9 10 9 8 8 7 6 5 4 5 5 5 5 6 4 3 2 3 2 2 2 2 2 2 2 4 4 4 4 4 2 1 2 1 2 2 2 1 3 3 4 4 4 3 3 3 1 0 1
0 3 1 6 7 7 2 0 1 1 1 2 2 4 6 3 1 3 2 4 7 10 7 5 5 5 5 5 5 6 8 8 10 8 7 7 7 7 8 9 8 7 7 7 8 11 9 7 7 7 9 10 9 8 8 7 6 7 7 6 7 7 7 8 8 7 7 7 6 7 6 6 3 0 3 4 4 4 4 5 4 4 3 3 3 3 4 3 2 3 3 3 2 2 2 1 0
1 0 2 1 4 5 2 1 0 2 1 1 1 3 8 4 0 3 0 2 5 5 3 4 4 4 4 4 5 6 6 6 6 7 8 8 7 6 7 8 9 8 7 9 10 9 9 9 7 8 9 10 11 10 10 9 8 9 8 8 9 9 8 9 9 9 9 9 8 8 9 7 6 6 7 3 0 1 0 0 1 3 1 1 3 3 4 2 3 4 4 4 2 1 2 1 2
2 1 5 3 4 6 8 3 3 3 1 3 3 1 9 8 1 3 2 4 8 6 3 3 4 4 4 4 5 5 5 5 6 7 8 8 8 8 8 9 8 8 9 8 7 8 9 10 9 9 10 11 11 10 10 10 10 9 9 9 9 9 9 10 9 8 8 8 10 11 12 10 9 9 5 4 5 4 4 4 3 3 4 3 2 2 1 2 3 4 3 5 5 4 1 3 2
4 2 4 2 0 5 8 1 2 4 1 3 1 6 4 4 1 3 4 4 6 8 3 3 4 4 4 4 4 4 5 6 7 8 9 8 7 7 7 8 9 8 7 9 9 8 10 10 10 11 11 10 10 11 11 11 11 11 11 10 10 11 10 9 8 8 10 10 8 8 7 9 10 10 9 8 6 5 5 5 4 4 3 4 4 4 4 5 5 4 4 5 3 0 2 3 3
4 2 4 3 3 2 3 5 2 3 1 1 2 1 5 6 2 6 6 3 7 6 4 3 3 3 3 3 4 4 4 5 7 7 9 7 7 8 7 6 7 7 7 8 8 7 7 7 8 9 9 9 8 8 9 10 10 10 10 10 11 12 11 10 9 9 10 9 9 10 9 10 10 10 11 10 10 9 8 6 5 5 5 5 5 4 4 4 4 3 3 3 4 4 3 3 4
4 3 2 6 2 4 6 1 1 2 2 0 1 2 10 13 2 7 5 3 7 5 3 3 3 3 3 3 3 3 4 5 5 4 5 6 7 6 6 6 6 7 7 8 8 7 7 8 8 10 10 9 8 8 7 8 9 10 10 10 12 12 10 10 10 11 9 9 10 10 11 10 10 10 11 10 10 8 8 7 6 7 6 4 5 5 5 5 5 4 4 2 4 3 2 1 0
5 7 6 4 4 4 5 6 3 1 4 4 3 6 9 10 5 4 5 3 7 5 3 3 2 2 2 2 2 3 3 4 3 3 4 5 5 6 5 5 5 6 8 8 8 9 9 9 7 10 10 7 6 7 7 8 9 9 10 10 12 10 9 9 10 9 8 9 9 10 10 10 9 8 9 8 9 8 8 7 7 7 6 5 7 7 6 5 4 4 4 3 3 2 2 2 2
3 3 3 4 6 6 3 3 4 0 1 7 9 6 7 10 4 1 1 4 6 4 3 2 1 1 1 2 3 3 4 3 3 3 4 5 5 5 4 5 5 6 9 9 9 10 9 8 10 11 7 8 9 8 8 8 7 7 10 11 9 7 7 8 10 8 9 8 8 9 10 9 10 12 11 10 9 7 7 7 8 7 6 7 8 6 4 5 5 4 3 3 2 1 1 1 1
1 2 3 6 4 8 3 2 1 1 3 3 1 1 7 11 1 4 1 2 2 3 4 2 2 1 1 2 3 3 2 2 4 6 7 6 6 7 5 6 8 11 9 8 9 7 6 7 10 7 7 9 9 8 7 8 6 6 8 7 7 8 8 9 9 9 9 9 11 11 10 10 11 10 10 10 10 10 9 9 10 10 10 8 7 6 6 6 6 5 3 3 4 2 1 1 1
1 4 3 2 8 3 9 3 2 2 2 8 2 3 9 8 2 2 2 1 0 1 1 2 3 2 1 2 2 3 3 3 4 4 5 5 6 6 6 6 6 5 5 7 5 6 8 9 8 7 7 8 7 6 8 9 7 6 6 5 6 7 6 6 7 6 7 9 10 10 10 10 10 10 9 9 9 9 9 10 9 9 9 8 8 10 9 10 8 7 6 4 3 3 1 2 1
4 1 2 9 2 1 6 1 3 1 2 2 1 4 8 4 3 2 2 0 1 2 3 3 2 3 2 1 1 1 2 3 4 4 4 5 4 4 5 7 6 6 7 7 7 7 6 7 6 8 8 7 7 6 6 5 7 7 8 9 9 9 6 5 7 9 10 12 12 10 10 9 10 9 10 9 9 9 9 9 8 8 9 8 8 9 10 10 9 9 8 6 3 3 4 3 2
2 5 5 4 2 4 7 5 2 2 1 1 1 3 7 10 8 1 2 1 2 2 4 3 3 2 0 0 2 2 1 2 3 4 4 4 5 5 5 5 5 7 6 6 6 6 5 6 6 7 7 7 7 7 7 4 6 6 6 7 6 6 8 9 10 11 9 8 9 11 9 8 9 9 9 9 9 9 9 8 8 8 9 8 8 9 8 7 7 6 8 8 8 4 5 3 2
3 5 10 8 6 7 4 4 4 6 3 1 0 4 5 3 3 5 3 1 1 0 2 1 1 1 1 3 2 1 2 1 1 2 2 3 3 4 5 6 6 5 6 5 4 4 4 5 6 6 7 8 8 7 6 8 8 8 7 8 9 9 10 9 10 7 7 8 7 4 9 9 9 9 9 9 9 8 9 8 8 9 8 8 7 7 6 7 8 8 7 5 8 7 3 4 5
0 6 7 11 7 2 1 0 2 2 1 1 2 3 7 6 4 2 2 2 1 1 0 0 0 1 1 1 1 1 1 2 2 2 3 4 4 4 5 6 5 6 6 4 4 5 5 6 6 7 8 7 7 8 7 9 11 11 12 10 8 8 9 6 3 3 5 5 6 8 8 9 10 10 10 9 9 9 8 8 8 8 8 7 7 8 8 7 6 6 6 7 6 6 6 7 6
4 2 2 4 4 5 4 4 5 5 1 3 1 1 4 4 4 3 2 1 0 1 2 2 2 2 1 1 0 0 0 0 1 2 2 2 3 3 5 5 5 5 4 4 5 5 6 6 7 8 8 8 7 7 9 8 11 9 10 10 9 9 9 7 5 5 5 5 9 9 7 8 9 10 10 10 10 9 9 9 9 8 9 7 7 7 7 6 6 6 6 5 6 6 6 6 4
3 1 5 4 5 4 4 5 4 1 1 7 4 1 3 4 3 3 2 1 4 8 5 5 4 3 3 2 2 2 1 0 0 0 2 2 3 4 3 4 4 4 4 4 4 4 4 5 7 8 10 9 7 8 10 9 9 9 9 9 11 7 7 6 5 6 7 7 11 9 10 9 9 10 10 10 10 10 9 9 9 9 9 8 7 7 7 7 7 7 8 8 7 6 6 4 5
1 6 8 7 6 5 4 4 3 1 1 6 4 2 3 7 2 0 2 2 9 5 7 8 6 5 5 4 4 4 1 0 0 0 0 2 2 3 3 2 4 4 3 3 4 4 4 4 8 11 10 8 7 9 10 11 10 9 11 10 12 8 6 6 6 8 7 6 10 9 8 9 9 9 10 10 11 10 10 9 9 9 9 8 8 8 8 8 8 7 6 5 5 6 4 5 5
6 3 6 5 7 3 2 6 2 1 2 7 9 7 6 7 3 8 8 7 3 4 2 3 3 4 5 5 5 5 4 2 2 0 0 1 1 2 3 3 3 4 4 4 4 4 4 6 8 13 8 7 8 9 10 11 9 9 10 10 10 9 6 7 9 9 8 9 9 8 8 7 7 8 8 9 10 9 9 9 9 9 8 8 8 8 8 7 7 6 6 6 8 8 6 6 5
5 2 3 2 1 5 2 3 5 1 5 4 1 2 1 8 4 6 6 2 3 9 9 12 11 10 9 8 7 5 4 4 2 2 1 0 2 2 3 3 3 3 3 4 4 4 5 5 8 12 8 7 7 7 10 10 10 11 10 10 10 8 7 8 10 9 7 8 7 8 6 7 8 7 8 8 10 10 8 8 8 8 9 8 8 7 7 7 6 6 6 6 6 6 7 7 6
4 6 6 5 3 5 2 2 2 5 5 1 3 1 2 11 5 1 4 7 4 4 3 11 13 11 10 8 8 5 4 4 4 4 3 3 3 3 2 1 3 3 3 3 4 4 4 5 7 12 8 6 7 7 10 9 10 9 8 8 7 7 8 9 8 9 6 8 7 8 8 8 7 9 8 8 8 8 7 8 8 8 8 7 6 7 6 7 7 6 6 6 6 7 6 5 6
5 7 6 6 0 0 4 4 2 6 5 3 1 0 5 2 5 4 5 3 3 3 4 3 9 13 13 10 7 5 4 5 5 5 5 4 4 3 2 2 2 2 2 3 3 4 4 5 5 10 7 5 5 7 8 10 8 7 6 7 7 7 8 8 7 7 6 6 6 7 7 6 7 6 7 7 6 6 6 5 5 6 5 5 6 6 6 6 6 6 6 7 7 5 5 5 5
8 3 9 8 7 5 4 3 4 5 4 2 4 1 6 1 3 2 6 3 3 4 5 4 5 5 5 4 3 4 5 5 6 5 5 5 5 4 4 3 2 2 2 3 3 3 4 4 5 8 8 5 6 6 6 8 8 7 6 7 7 6 7 7 7 6 6 6 5 6 6 5 6 5 6 4 5 6 6 7 7 7 7 7 6 7 7 6 6 5 6 5 5 5 6 6 5
0 2 6 5 7 5 2 4 3 1 3 3 2 6 4 4 0 1 2 3 2 3 2 4 6 5 5 5 7 8 7 8 6 5 4 4 4 4 3 3 3 3 3 2 3 3 4 4 5 6 7 5 5 6 6 7 7 6 6 7 6 6 6 6 6 5 5 5 5 6 5 5 4 4 4 5 6 5 6 6 6 6 5 6 7 7 8 8 8 7 6 6 6 4 5 5 4
4 5 5 6 2 4 2 2 2 2 3 9 3 7 6 3 0 2 3 1 2 2 0 2 5 7 6 8 9 9 9 8 7 6 5 5 4 4 4 4 4 3 3 4 4 3 4 4 5 6 5 5 5 5 6 6 6 7 6 6 5 6 6 6 6 5 5 4 5 4 5 4 3 3 4 3 4 4 4 4 5 5 6 6 6 7 7 7 6 6 7 8 8 7 6 5 5
8 2 7 1 1 3 5 4 1 2 5 7 3 7 6 1 9 1 2 2 5 3 2 3 4 6 9 11 11 11 10 8 6 5 4 5 5 5 4 4 4 4 4 4 4 3 3 3 4 6 6 7 5 6 7 6 7 7 6 6 6 6 6 5 5 5 4 5 3 3 3 4 3 1 1 1 1 1 2 3 4 4 5 5 6 5 5 6 5 6 5 5 5 5 6 5 5
3 2 3 5 2 1 1 4 4 2 4 5 5 3 7 8 8 2 5 6 9 7 4 4 8 10 13 12 12 9 6 6 6 6 6 6 6 6 6 6 5 4 4 4 4 3 3 3 3 4 6 5 5 5 5 5 5 5 5 5 5 5 5 5 4 4 4 5 4 3 3 1 1 1 3 4 4 6 6 6 5 5 5 4 4 4 4 4 4 5 4 5 5 4 5 6 5
2 2 2 1 2 1 5 7 3 4 7 5 10 4 13 3 5 10 7 12 10 5 6 11 14 15 14 13 12 12 11 10 10 10 8 7 6 7 7 7 6 6 5 4 4 3 4 3 4 4 4 4 5 6 5 6 4 5 5 4 4 4 4 5 4 5 6 5 4 4 4 5 5 4 5 4 5 5 5 5 5 4 4 4 4 4 4 4 5 5 6 7 6 5 6 6 7
1 2 2 0 0 2 3 1 4 5 3 5 8 10 9 1 3 8 5 1 6 12 15 13 12 13 13 13 14 13 12 12 11 7 5 5 6 6 6 5 5 4 4 4 4 4 4 3 4 4 7 5 5 4 5 4 5 4 5 5 4 4 4 3 4 3 4 3 3 3 3 3 3 4 3 4 4 4 4 4 5 5 5 6 6 6 5 4 5 5 5 5 6 6 7 7 7
7 12 11 12 7 2 2 9 2 1 3 5 4 14 8 2 3 1 1 3 4 9 7 9 11 12 14 14 10 8 9 9 6 4 4 5 5 5 5 4 4 4 5 5 4 3 4 4 4 4 4 5 5 4 5 4 4 4 5 4 3 2 3 2 3 3 3 3 2 2 1 2 2 2 1 3 3 3 3 4 4 4 5 5 5 5 6 5 6 7 6 5 6 7 7 8 6
Wind_Direction
333 351 331 54 62 89 50 0 138 334 61 27 5 15 215 209 226 1 240 339 34 250 205 332 121 105 266 188 177 194 201 114 208 112 47 238 220 224 214 211 290 163 161 166 175 176 180 185 180 183 177 174 177 179 174 164 160 158 160 157 152 153 154 152 147 147 151 146 147 144 144 143 141 137 134 127 119 105 94 82 77 71 74 89 95 96 86 81 77 69 58 53 52 47 46 42 38
328 336 36 26 42 55 319 136 96 353 40 64 225 95 245 279 29 217 272 197 203 235 318 287 3 88 47 68 124 123 285 229 171 211 278 242 276 247 202 186 193 167 161 162 174 178 178 183 182 187 176 176 177 174 171 164 165 163 161 162 158 158 158 157 154 148 154 155 155 149 148 150 146 140 137 133 121 110 96 98 96 93 92 97 94 96 92 86 82 76 61 53 52 48 44 41 36
339 11 29 38 32 72 100 34 297 49 83 58 276 206 322 86 222 264 224 216 227 294 298 314 150 357 39 38 17 116 266 301 299 278 243 320 6 285 165 170 172 171 163 160 169 179 182 183 184 186 179 175 180 174 170 168 168 166 165 166 165 163 162 160 164 153 159 162 159 156 152 150 148 144 142 137 128 115 111 107 106 99 108 109 108 101 93 87 83 79 68 53 46 48 43 40 37
92 28 123 62 264 31 59 28 85 122 102 199 312 292 205 168 247 220 249 253 277 338 355 291 102 231 112 13 256 42 288 341 197 164 306 322 190 263 170 151 161 144 148 166 171 177 181 189 187 185 181 176 179 174 171 172 171 169 169 168 171 167 167 167 167 161 165 158 168 160 159 154 152 148 145 136 136 124 121 111 107 115 120 121 112 105 93 82 81 82 75 62 44 40 37 33 34
80 3 78 104 108 351 105 107 134 107 97 208 70 276 258 220 244 282 276 273 289 154 48 228 105 308 164 129 159 94 325 247 310 201 264 265 302 270 158 133 133 144 162 176 171 175 184 186 191 187 182 177 180 168 172 173 178 173 172 173 173 171 170 170 169 169 170 163 162 166 160 161 154 155 145 140 135 127 119 117 104 113 119 119 119 116 94 83 77 81 81 61 49 44 38 32 31
59 48 8 87 207 156 56 59 44 65 214 151 66 321 261 234 198 264 276 303 268 301 174 73 135 333 351 299 185 283 210 39 215 267 202 319 334 292 152 130 126 145 159 172 173 171 183 191 191 191 186 179 183 173 171 175 184 176 175 178 178 179 175 174 170 175 174 168 166 168 168 168 169 167 160 146 140 131 124 115 108 116 126 128 120 111 93 79 79 80 73 67 60 53 46 42 36
1 46 358 29 40 48 160 121 188 189 327 167 47 266 273 280 230 358 325 350 141 78 262 10 42 88 57 316 342 240 186 281 93 277 173 302 329 137 139 122 123 142 146 165 168 171 181 196 198 195 190 184 186 175 174 177 188 177 177 182 186 187 181 183 173 182 178 175 171 173 173 173 178 174 170 156 148 145 151 149 132 130 134 139 122 110 95 91 49 66 58 69 71 60 52 47 40
90 99 322 105 320 47 38 159 248 164 356 176 254 260 275 248 236 328 287 84 317 63 344 223 296 113 255 67 14 278 337 192 272 299 292 289 85 82 120 131 126 140 148 147 164 163 179 196 205 201 201 189 190 181 177 181 191 184 184 188 192 192 193 196 186 189 187 184 180 181 178 181 182 183 173 164 154 149 175 160 145 149 143 143 110 56 45 28 2 67 79 84 71 62 57 52 43
6 89 239 68 45 29 57 46 278 248 288 297 284 224 270 277 188 81 334 250 300 314 318 326 316 42 249 348 215 266 291 299 305 295 2 53 64 19 100 128 140 143 152 158 158 161 172 195 206 205 207 197 193 187 184 184 197 192 192 192 195 196 197 199 196 197 197 193 191 187 191 190 192 184 179 166 158 153 165 157 157 139 137 92 71 64 51 51 37 91 93 85 71 62 59 54 50
44 40 305 106 138 43 21 301 75 167 245 257 263 287 260 174 152 112 243 354 140 302 295 329 228 27 289 301 317 14 352 354 303 51 22 41 35 61 92 63 135 153 156 169 171 166 173 195 201 210 208 204 195 188 188 189 198 195 196 197 198 198 201 199 201 201 204 203 201 200 200 201 191 192 188 172 162 157 167 156 144 148 114 97 90 76 70 65 64 70 89 86 69 61 54 46 49
351 16 136 74 33 88 115 253 267 317 273 317 293 248 244 240 131 221 191 256 116 167 309 193 29 295 22 286 220 262 308 321 37 32 10 350 48 80 127 324 103 164 169 178 177 167 175 189 199 207 210 210 201 193 189 193 200 195 195 202 202 198 202 199 209 203 208 209 210 207 210 213 192 180 192 189 167 168 169 163 155 144 130 126 112 91 85 99 37 193 88 77 73 67 51 39 37
327 28 5 102 118 143 222 145 288 283 297 322 132 346 169 155 143 18 345 24 340 335 210 115 339 156 8 336 352 314 314 18 34 33 338 339 77 13 159 212 145 179 173 180 168 179 177 181 195 209 210 210 208 197 193 195 199 198 193 203 204 205 202 208 212 213 210 212 216 221 218 229 182 187 195 193 183 175 176 171 169 154 152 150 127 105 27 28 212 70 102 88 85 73 59 38 29
100 87 71 76 171 135 162 39 255 288 330 294 174 47 307 152 294 225 226 197 358 5 11 213 154 86 311 283 267 321 19 339 345 310 311 8 23 286 44 50 305 186 163 150 169 189 179 181 192 206 211 211 213 205 194 196 198 203 193 198 203 203 200 209 209 214 213 216 219 216 222 197 167 182 202 200 191 185 189 180 175 165 159 153 128 134 353 354 82 111 104 103 93 79 60 50 23
110 181 126 145 39 122 142 282 338 93 312 265 263 287 330 207 230 213 131 56 306 24 255 252 103 162 276 20 320 335 274 341 338 336 320 12 17 32 33 14 17 8 8 34 196 224 202 198 195 200 207 211 215 215 208 196 196 200 198 194 199 201 195 205 214 215 215 215 219 216 165 164 176 183 200 221 209 189 210 190 166 176 168 147 137 39 1 100 105 106 107 102 88 79 63 48 37
115 153 84 119 60 80 241 86 195 137 75 49 267 347 358 248 134 120 178 130 345 210 296 157 224 61 251 80 292 268 325 330 325 334 8 28 29 37 29 39 44 35 25 17 2 14 332 331 264 221 212 204 207 211 209 210 201 197 195 195 197 198 198 204 210 212 210 207 196 177 118 151 165 168 190 213 198 183 213 170 183 177 164 151 131 32 335 122 114 114 115 101 90 77 69 52 37
138 89 78 97 337 127 233 167 75 85 136 200 288 201 114 281 173 108 246 168 251 304 22 248 319 227 265 166 245 333 313 319 312 341 43 36 6 31 23 23 32 44 63 45 11 2 346 330 296 258 219 210 201 203 200 200 210 205 195 195 194 195 198 204 207 205 196 190 181 145 126 141 164 164 180 198 190 195 183 195 178 163 172 146 63 43 73 124 125 121 117 110 97 85 73 58 41
67 80 52 29 92 167 204 162 150 147 254 274 294 42 65 298 273 233 141 79 278 296 354 246 220 27 217 206 359 326 334 325 354 18 25 15 9 2 360 14 357 354 9 14 69 324 326 277 234 224 231 220 208 200 196 193 196 202 207 197 195 193 194 197 205 205 195 186 183 136 119 134 163 154 169 180 182 181 178 181 176 173 146 101 92 86 102 126 130 128 121 112 103 91 74 59 39
55 63 116 52 203 117 204 174 189 201 290 293 345 56 48 325 337 319 345 359 71 307 291 294 314 265 240 253 41 6 344 24 13 38 17 15 10 2 359 351 9 346 334 329 336 327 340 225 213 214 225 225 219 208 196 190 184 190 196 199 200 197 196 195 195 193 189 181 164 146 142 158 158 162 168 169 180 180 178 182 172 171 154 124 120 113 126 140 135 132 123 114 105 89 77 58 44
84 134 78 234 192 239 152 201 202 130 268 229 273 309 154 245 139 316 31 302 351 334 311 346 318 308 342 8 359 17 19 32 29 40 40 27 15 8 354 343 352 350 350 344 325 341 317 292 239 217 207 212 214 212 205 193 182 180 193 195 191 192 189 192 193 186 181 177 169 164 163 164 157 167 166 162 179 199 185 179 174 190 151 144 142 143 153 139 137 128 120 106 94 88 75 70 65
194 113 307 254 210 250 226 196 221 203 119 291 313 357 103 251 121 292 84 272 316 302 302 337 335 294 339 354 6 10 30 31 34 36 37 30 22 13 1 356 347 346 336 330 315 321 341 322 291 243 223 203 208 206 203 191 187 178 185 187 187 186 185 190 194 185 187 183 180 176 178 160 168 172 185 172 175 186 212 211 183 174 62 237 131 118 118 129 130 115 107 100 87 85 90 64 70
263 76 165 228 197 111 264 187 238 238 172 278 88 310 332 292 214 81 183 355 300 279 229 178 271 298 329 355 16 18 28 29 25 28 27 19 12 18 3 343 334 319 322 311 329 334 331 331 321 295 252 218 206 207 198 196 182 181 185 184 181 184 191 189 190 188 192 192 190 186 183 180 167 173 173 172 189 179 194 190 192 133 140 215 126 119 105 108 94 100 84 79 96 108 86 72 70
117 211 190 161 119 297 253 205 224 159 158 194 249 335 267 354 89 157 147 246 267 256 289 176 33 42 24 9 11 29 29 29 22 24 21 17 10 358 355 349 342 330 331 352 341 330 331 326 317 297 276 223 204 201 201 184 177 190 186 188 181 186 205 212 214 235 181 179 192 192 179 175 161 144 144 161 206 309 202 178 250 179 140 124 111 132 122 130 111 103 110 114 105 89 100 106 87
260 314 248 210 199 233 273 176 221 115 310 257 300 249 26 84 293 226 195 209 233 3 73 92 80 71 74 66 38 30 27 24 21 19 13 11 2 359 357 349 350 346 344 335 329 328 323 326 320 310 278 242 206 191 186 177 185 179 174 167 188 193 219 249 232 184 194 247 217 174 168 172 166 155 185 146 203 146 229 316 186 185 161 151 186 156 115 105 121 132 141 138 127 112 100 91 87
113 233 344 318 171 219 211 259 124 251 176 250 212 14 288 271 316 171 127 271 57 67 74 84 87 72 55 53 37 41 34 27 16 13 17 10 359 348 350 346 340 327 339 342 342 334 333 330 322 311 281 248 215 185 180 178 170 166 163 161 196 240 215 268 200 292 324 168 171 235 243 205 185 173 163 170 186 146 252 178 166 236 101 133 181 164 121 129 146 143 139 127 130 120 129 96 83
130 282 248 252 161 244 284 272 276 241 247 264 318 287 254 165 219 34 301 154 94 75 65 64 66 57 49 49 36 31 31 19 15 4 10 12 1 342 357 352 349 348 360 349 338 339 338 332 328 328 290 231 235 202 188 157 146 155 155 167 192 156 222 232 274 122 13 103 77 203 188 187 145 129 155 274 178 162 173 212 163 126 319 191 162 166 150 157 141 153 165 160 146 147 142 132 86
174 221 183 284 281 301 285 303 264 235 261 159 318 268 294 259 251 191 250 124 112 86 58 36 49 50 42 40 36 33 29 24 8 13 3 349 0 9 8 360 353 5 349 333 342 341 335 336 341 347 325 191 161 177 130 110 117 145 151 155 156 159 208 248 191 310 84 96 93 125 156 183 168 156 166 139 142 172 178 195 277 194 155 228 223 139 134 166 166 142 146 146 156 166 175 175 118
161 223 221 282 285 343 323 265 316 343 274 177 244 289 290 328 64 288 47 145 139 69 53 38 55 53 39 40 34 29 33 23 12 349 10 11 13 14 354 356 4 349 343 352 350 345 335 344 352 359 0 39 86 93 68 66 76 88 82 64 60 187 183 172 278 253 284 268 163 164 156 148 142 133 127 128 149 167 163 152 198 262 188 179 208 136 119 142 127 142 148 164 178 174 191 136 137
77 174 332 293 324 272 260 302 285 296 305 165 189 254 301 293 98 216 160 91 78 85 53 48 53 50 40 34 38 28 36 19 13 21 21 10 6 357 354 360 348 346 357 351 345 335 346 356 355 5 8 23 60 75 93 94 94 103 101 100 185 334 152 230 239 225 243 255 224 173 187 145 146 129 139 153 169 175 211 200 194 194 198 170 189 164 149 125 128 116 120 127 126 136 133 64 36
140 54 320 301 348 343 324 289 345 71 270 137 159 310 289 24 212 246 61 90 93 79 67 49 51 48 39 31 36 34 26 16 20 28 17 5 353 356 355 353 349 345 343 338 336 347 3 356 0 7 14 29 40 37 42 31 33 38 40 31 15 13 2 350 344 337 319 306 328 280 273 159 166 153 150 157 162 165 157 168 200 239 27 60 58 58 85 103 119 130 114 112 104 99 109 50 34
103 35 110 329 352 324 301 64 357 19 251 116 186 298 280 271 234 255 186 128 84 60 45 41 45 39 34 34 35 34 25 22 23 22 7 1 0 355 359 350 352 353 342 342 349 8 359 0 2 16 21 36 40 47 49 51 50 54 50 47 38 38 29 35 20 17 17 13 20 15 7 359 349 271 165 170 177 169 172 177 194 211 191 147 132 134 128 128 111 122 131 122 119 140 172 242 354
215 234 66 258 2 275 268 131 304 349 88 52 105 229 286 259 170 304 6 162 90 93 56 52 41 37 34 33 38 38 30 30 22 12 8 3 360 358 358 353 357 356 354 1 6 351 5 12 10 30 26 41 43 47 54 58 58 62 60 59 58 55 55 52 38 33 35 27 24 22 17 21 23 20 11 9 11 52 75 171 1 360 42 97 134 142 135 148 166 170 150 144 90 115 163 194 199
10 21 294 328 168 280 299 279 184 181 356 21 100 307 250 285 303 8 35 85 103 96 84 60 48 45 34 30 40 35 31 22 22 18 11 3 3 359 359 356 354 0 7 357 356 0 18 18 17 35 31 41 45 49 55 58 61 64 64 63 64 61 60 55 51 51 51 42 36 35 26 22 17 9 22 58 62 42 57 58 41 61 65 58 37 26 99 176 162 139 157 161 173 216 195 250 172
351 168 273 270 284 261 334 1 308 300 98 11 158 231 327 338 244 23 7 90 93 111 86 59 54 44 38 37 33 33 25 20 21 15 9 4 2 0 358 357 0 357 0 8 8 7 22 17 21 29 30 32 43 51 57 60 60 61 57 55 53 55 52 48 45 40 46 44 47 54 40 42 36 29 22 14 30 37 62 70 55 66 88 93 88 83 59 36 24 360 18 4 359 46 215 290 303
277 33 224 206 196 256 271 303 8 4 95 218 13 210 240 247 140 2 21 70 105 99 94 69 53 44 36 32 39 34 35 29 24 8 360 3 356 1 359 359 360 360 8 16 13 16 24 22 28 31 28 28 34 44 52 61 63 64 62 57 56 54 46 44 39 40 40 33 31 33 30 43 41 42 43 40 45 33 29 30 32 59 70 67 70 78 77 75 67 58 54 51 33 21 4 350 328
207 178 257 278 263 222 249 316 258 33 24 51 299 221 268 272 275 23 19 23 96 96 98 85 55 43 27 36 38 35 41 40 18 5 1 359 8 1 3 2 6 11 16 17 16 16 30 32 36 35 33 26 30 34 41 53 56 65 65 59 55 51 45 45 41 44 36 33 34 28 31 33 29 37 42 43 53 43 40 34 37 23 26 50 68 68 62 64 74 83 85 72 74 78 70 62 355
203 172 184 175 183 241 218 237 273 139 285 286 216 233 251 265 273 17 18 23 98 110 95 75 63 44 39 40 38 42 38 37 2 6 11 13 12 7 8 5 11 20 25 19 20 26 28 32 41 43 32 26 40 46 40 53 56 48 54 51 52 44 48 46 41 41 28 33 28 33 33 35 31 34 39 43 58 54 51 46 43 34 37 48 51 38 27 32 48 72 83 102 82 90 95 113 118
116 111 115 205 220 271 287 253 251 177 332 251 247 240 243 263 274 322 21 74 81 97 101 105 88 65 32 25 33 32 40 30 319 13 28 16 12 13 12 16 17 36 32 21 28 28 28 26 45 43 22 32 47 45 44 44 49 51 54 53 59 41 43 47 48 36 40 36 28 34 34 35 32 33 30 34 33 41 49 49 51 45 50 53 53 46 38 40 31 37 52 33 68 56 23 38 135
165 147 184 260 183 252 248 240 5 322 161 294 353 260 264 253 1 343 342 74 104 154 140 140 109 74 22 29 23 7 342 329 2 24 16 13 12 13 17 28 26 39 15 20 29 23 28 33 50 46 34 44 45 50 62 62 49 61 85 71 72 54 45 44 43 35 36 38 38 33 32 32 35 35 32 36 39 36 37 36 36 32 31 40 58 54 47 43 35 31 29 41 18 53 342 338 297
91 195 225 274 260 242 279 288 343 281 129 260 326 259 266 272 76 18 28 96 48 330 164 140 137 114 64 34 23 12 21 1 12 18 19 11 5 13 26 29 34 40 28 29 15 33 33 40 41 47 43 48 43 43 61 71 68 59 75 73 73 81 63 66 63 49 41 46 40 34 32 31 31 36 32 36 43 39 43 46 41 38 37 31 43 41 35 34 24 27 30 45 4 3 43 340 355
180 126 165 236 210 32 296 302 6 58 161 273 176 225 275 277 77 63 333 110 96 47 72 74 86 131 110 62 10 27 10 356 18 13 7 355 2 12 26 31 22 29 32 25 18 28 36 38 43 51 52 50 48 37 61 75 86 92 81 85 75 73 69 56 65 48 41 40 35 31 33 29 30 37 32 35 43 44 46 51 49 47 44 41 49 48 40 35 25 21 16 20 35 13 359 348 4
259 202 219 245 198 229 188 255 301 289 327 53 147 305 293 247 235 237 42 76 80 53 66 64 51 54 114 77 47 31 32 349 8 14 3 358 9 18 24 20 17 38 31 23 16 22 36 39 43 55 57 57 55 49 51 67 83 72 76 79 76 72 49 43 45 37 34 37 41 34 26 26 32 38 33 34 38 41 41 44 51 50 49 42 49 53 48 43 36 33 26 29 27 24 358 344 355
297 230 207 222 219 229 257 330 349 6 332 333 163 322 290 307 290 213 161 176 80 15 89 102 41 58 67 71 49 17 5 345 359 347 336 334 355 13 26 25 31 33 31 12 4 22 39 49 55 60 62 56 53 52 58 73 69 76 68 60 53 55 55 40 40 34 27 35 42 39 38 34 35 40 36 35 35 37 40 38 44 48 46 42 44 56 50 41 34 34 25 41 34 24 14 22 358
53 270 200 218 216 191 143 177 86 310 264 327 36 202 274 326 311 214 172 143 89 7 71 248 136 156 85 85 57 17 359 5 4 356 353 9 357 23 29 30 20 31 16 358 13 26 38 52 57 60 63 60 54 57 59 78 74 71 75 79 83 76 84 58 52 43 52 43 55 48 43 39 35 38 35 36 34 35 40 38 41 47 49 45 39 48 45 39 35 35 21 41 38 34 39 44 22
228 258 143 157 147 181 205 161 179 234 251 299 29 139 258 302 283 31 97 104 336 283 244 244 248 217 205 184 250 281 322 304 342 344 338 342 358 21 36 19 24 18 357 7 25 24 41 47 57 61 61 61 53 59 64 65 88 88 89 85 77 73 70 74 50 50 49 54 56 44 42 42 38 37 35 33 31 31 36 38 37 42 46 41 42 46 43 29 38 36 40 44 46 42 43 55 37
216 201 125 135 164 173 136 143 171 194 40 284 320 294 323 254 258 13 81 285 267 244 219 227 224 228 214 217 227 233 229 255 231 9 350 351 9 15 18 34 9 19 14 22 20 26 40 48 62 65 61 61 56 63 73 66 78 84 85 88 82 64 70 66 62 50 49 38 53 37 40 35 35 36 37 32 28 28 29 32 32 37 40 34 36 40 37 36 39 38 31 34 39 39 40 33 55
217 133 96 90 85 80 117 103 123 339 78 264 261 190 236 270 282 354 339 295 261 225 191 214 214 205 207 210 228 222 240 243 285 255 328 356 3 10 354 20 36 13 6 23 34 37 43 55 68 67 57 55 57 63 70 67 68 76 80 75 82 73 63 67 61 53 47 35 50 39 34 33 27 29 28 29 27 23 25 24 29 32 32 31 33 32 28 28 25 30 30 42 40 52 35 45 58
132 102 69 22 39 33 34 66 94 64 255 248 222 212 175 288 231 206 167 214 202 107 198 234 221 221 226 228 214 208 198 198 184 231 342 356 335 6 29 41 17 26 18 27 40 47 51 64 71 68 56 57 57 65 71 74 72 71 76 77 79 79 71 69 62 49 42 41 44 37 34 30 31 31 24 26 27 20 21 23 24 25 26 28 30 30 29 25 16 17 16 28 34 33 21 26 37
127 111 123 68 342 13 36 345 37 168 266 259 297 212 157 199 288 272 233 257 208 165 183 192 198 202 206 204 211 207 192 191 196 161 172 78 70 44 36 46 42 34 35 38 45 44 56 64 78 79 59 56 60 68 74 71 73 70 73 77 79 79 79 74 71 66 48 53 46 42 29 37 28 29 27 24 21 15 19 20 19 22 22 19 24 22 25 23 16 19 23 26 26 26 23 20 18
88 93 75 115 247 36 298 21 256 212 217 221 340 288 298 241 219 226 231 217 222 242 220 194 188 194 200 208 205 196 188 185 191 201 193 190 150 130 111 110 87 70 73 63 57 61 68 74 81 89 71 60 65 69 76 75 75 73 80 83 85 83 76 75 75 72 52 58 49 45 37 38 25 29 20 24 14 11 15 18 18 19 16 14 13 22 19 20 17 20 19 20 25 28 17 15 19
120 153 144 103 133 164 258 269 245 299 287 276 313 71 252 244 275 223 227 220 209 250 253 243 197 190 193 195 194 185 192 197 207 199 196 186 177 176 184 168 141 115 86 74 75 80 81 84 83 91 87 70 76 75 79 82 77 81 79 81 80 79 75 76 72 73 65 67 61 59 54 46 41 34 20 23 0 5 21 21 21 22 18 11 17 18 22 21 21 20 17 17 10 6 11 13 9
205 118 152 179 146 160 223 181 211 226 207 278 265 78 232 118 218 198 228 260 289 254 244 234 217 210 194 174 162 181 199 217 210 209 201 188 183 182 182 184 174 160 143 111 105 96 96 96 96 99 96 74 79 82 83 83 81 75 72 74 76 73 79 76 72 72 71 68 57 66 58 49 49 27 29 3 9 18 15 17 18 18 12 10 10 16 15 19 21 18 22 13 4 4 3 1 359
205 167 75 99 227 140 193 205 160 245 331 334 190 209 191 190 71 259 296 304 314 341 283 183 192 170 155 169 192 202 211 212 211 209 202 203 192 179 173 177 183 181 168 150 126 125 114 114 104 98 103 104 90 88 79 83 82 79 73 75 72 77 81 82 73 68 65 68 65 68 57 51 42 31 19 21 11 17 13 15 15 15 6 10 11 13 13 13 9 11 8 10 4 360 1 357 344
207 112 193 211 158 114 69 29 72 96 46 255 136 295 283 313 343 325 324 327 311 333 26 166 167 167 172 196 204 210 211 211 209 203 199 196 187 178 173 177 179 177 173 168 168 162 144 135 121 108 104 98 89 86 88 85 86 80 74 77 78 77 76 75 83 77 73 60 63 56 58 41 32 31 19 20 10 6 8 14 14 7 9 7 10 11 12 10 7 6 2 356 355 349 356 349 341
98 186 234 177 139 115 131 222 338 79 197 268 95 233 280 69 278 55 354 333 267 252 211 187 173 172 192 205 205 208 208 210 208 204 199 193 179 176 179 181 181 183 180 173 175 180 163 145 131 121 114 104 96 91 89 90 88 86 82 77 76 84 85 81 80 83 82 80 68 63 60 49 46 5 38 346 2 360 19 24 27 14 9 8 10 2 7 0 360 360 351 348 333 335 336 337 339
148 195 205 114 207 191 290 88 253 239 253 267 277 242 252 203 244 95 252 222 235 212 195 173 195 195 206 208 212 214 215 212 208 204 202 196 185 183 178 182 190 188 181 176 170 163 145 125 117 110 111 109 111 104 100 90 90 92 91 88 91 83 81 88 92 90 86 77 67 74 73 72 69 46 25 19 16 15 15 14 19 9 6 6 3 0 359 353 352 348 340 336 323 332 331 325 324
43 65 67 355 107 168 130 200 188 136 261 281 268 305 270 147 211 179 210 210 211 161 181 210 205 202 200 204 204 203 205 206 206 207 201 190 186 182 179 181 184 186 186 187 169 149 131 131 116 105 96 101 100 101 106 99 96 98 94 90 73 80 77 80 66 67 56 54 43 38 27 25 14 11 17 12 14 8 5 6 4 2 357 359 3 358 355 353 352 353 344 342 335 337 331 325 319
104 122 229 106 344 232 106 353 146 179 194 206 268 276 268 254 196 177 209 246 201 177 196 205 205 206 209 208 202 202 204 205 208 202 188 183 186 184 186 184 186 191 189 174 172 165 155 143 127 130 123 114 106 117 111 117 107 98 94 91 85 79 81 83 80 82 92 78 50 45 32 14 7 11 5 3 7 356 356 357 352 354 355 350 356 349 350 348 344 340 339 331 328 333 329 324 323
176 171 195 181 135 160 177 257 72 144 163 231 209 254 278 263 132 225 243 246 193 214 208 202 203 207 209 210 208 205 208 213 203 192 180 187 185 187 188 185 189 180 188 184 184 146 146 151 141 125 114 122 125 122 123 124 110 117 123 130 138 130 119 92 87 64 68 56 36 37 21 14 24 326 358 340 347 341 350 347 353 345 347 348 342 343 336 346 339 335 333 331 329 326 321 316 320